South Paris, Maine, United States (04281)
Lat: 44.22N, Lon: 70.51W
Wx Zone: MEZ012
Local Info
Past Weather Observations for Wednesday, January 21, 2015

NOTE: This archive is for the closest National Weather Service station to South Paris. Information may differ from the station used for current weather conditions.

Click here for Long-term Archive

Time Weather Temperature Dewpoint Humidity Pressure Winds Precip Visibility
23:55
Clear
18°F / -8°C 10°F / -12°C 73% 30.24 in
(1024 mb)
Calm - 10SM
23:35
Clear
18°F / -8°C 12°F / -11°C 79% 30.24 in
(1024 mb)
Calm - 10SM
23:15
Clear
18°F / -8°C 10°F / -12°C 73% 30.24 in
(1024 mb)
Calm - 10SM
22:55
Clear
16°F / -9°C 10°F / -12°C 79% 30.24 in
(1024 mb)
Calm - 10SM
22:35
Clear
18°F / -8°C 10°F / -12°C 73% 30.24 in
(1024 mb)
Calm - 10SM
22:15
Clear
18°F / -8°C 10°F / -12°C 73% 30.24 in
(1024 mb)
NNE 3.5 mph
(NNE 6 kph)
- 10SM
21:55
Clear
19°F / -7°C 10°F / -12°C 68% 30.24 in
(1024 mb)
N 3.5 mph
(N 6 kph)
- 10SM
21:35
Clear
19°F / -7°C 10°F / -12°C 68% 30.24 in
(1024 mb)
Calm - 10SM
21:15
Clear
19°F / -7°C 9°F / -13°C 63% 30.21 in
(1023 mb)
Calm - 10SM
20:55
Clear
19°F / -7°C 9°F / -13°C 63% 30.21 in
(1023 mb)
Calm - 10SM
20:35
Clear
21°F / -6°C 9°F / -13°C 58% 30.21 in
(1023 mb)
Calm - 10SM
20:15
Clear
21°F / -6°C 9°F / -13°C 58% 30.18 in
(1022 mb)
Calm - 10SM
19:55
Clear
23°F / -5°C 9°F / -13°C 54% 30.18 in
(1022 mb)
Calm - 10SM
19:35
Clear
23°F / -5°C 9°F / -13°C 54% 30.18 in
(1022 mb)
Calm - 10SM
19:15
Clear
25°F / -4°C 7°F / -14°C 46% 30.18 in
(1022 mb)
SE 3.5 mph
(SE 6 kph)
- 10SM
18:55
Clear
27°F / -3°C 7°F / -14°C 43% 30.18 in
(1022 mb)
ESE 4.6 mph
(ESE 7 kph)
- 10SM
18:35
Clear
27°F / -3°C 7°F / -14°C 43% 30.18 in
(1022 mb)
SE 5.8 mph
(SE 9 kph)
- 10SM
18:15
Clear
27°F / -3°C 7°F / -14°C 43% 30.18 in
(1022 mb)
E 4.6 mph
(E 7 kph)
- 10SM
17:55
Clear
28°F / -2°C 7°F / -14°C 40% 30.18 in
(1022 mb)
ESE 3.5 mph
(ESE 6 kph)
- 10SM
17:35
Clear
28°F / -2°C 7°F / -14°C 40% 30.18 in
(1022 mb)
E 3.5 mph
(E 6 kph)
- 10SM
17:15
Clear
28°F / -2°C 7°F / -14°C 40% 30.18 in
(1022 mb)
Calm - 10SM
16:55
Clear
28°F / -2°C 7°F / -14°C 40% 30.18 in
(1022 mb)
SSE 4.6 mph
(SSE 7 kph)
- 10SM
16:35
Clear
28°F / -2°C 7°F / -14°C 40% 30.18 in
(1022 mb)
Calm - 10SM
16:15
Clear
28°F / -2°C 9°F / -13°C 43% 30.18 in
(1022 mb)
S 3.5 mph
(S 6 kph)
- 10SM
15:55
Clear
28°F / -2°C 9°F / -13°C 43% 30.15 in
(1021 mb)
S 3.5 mph
(S 6 kph)
- 10SM
15:35
Clear
30°F / -1°C 7°F / -14°C 37% 30.15 in
(1021 mb)
Calm - 10SM
15:15
Clear
30°F / -1°C 5°F / -15°C 34% 30.15 in
(1021 mb)
Calm - 10SM
14:55
Clear
30°F / -1°C 5°F / -15°C 34% 30.15 in
(1021 mb)
Calm - 10SM
14:35
Clear
30°F / -1°C 5°F / -15°C 34% 30.15 in
(1021 mb)
Calm - 10SM
14:15
Clear
30°F / -1°C 7°F / -14°C 37% 30.15 in
(1021 mb)
Calm - 10SM
13:55
Clear
28°F / -2°C 3°F / -16°C 34% 30.15 in
(1021 mb)
Calm - 10SM
13:35
Clear
30°F / -1°C 5°F / -15°C 34% 30.15 in
(1021 mb)
Calm - 10SM
13:15
Clear
30°F / -1°C 5°F / -15°C 34% 30.15 in
(1021 mb)
Calm - 10SM
12:55
Clear
28°F / -2°C 5°F / -15°C 37% 30.15 in
(1021 mb)
NW 3.5 mph
(NW 6 kph)
- 10SM
12:35
Clear
28°F / -2°C 5°F / -15°C 37% 30.15 in
(1021 mb)
NW 3.5 mph
(NW 6 kph)
- 10SM
12:15
Clear
27°F / -3°C 3°F / -16°C 36% 30.15 in
(1021 mb)
NW 3.5 mph
(NW 6 kph)
- 10SM
11:55
Clear
27°F / -3°C 5°F / -15°C 39% 30.15 in
(1021 mb)
NNW 5.8 mph
(NNW 9 kph)
- 10SM
11:35
Clear
27°F / -3°C 5°F / -15°C 39% 30.15 in
(1021 mb)
Calm - 10SM
11:15
Clear
25°F / -4°C 5°F / -15°C 42% 30.15 in
(1021 mb)
W 5.8 mph
(W 9 kph)
- 10SM
10:55
Clear
25°F / -4°C 3°F / -16°C 39% 30.15 in
(1021 mb)
Calm - 10SM
10:35
Clear
23°F / -5°C 3°F / -16°C 42% 30.15 in
(1021 mb)
NW 4.6 mph
(NW 7 kph)
- 10SM
10:15
Clear
21°F / -6°C 3°F / -16°C 45% 30.15 in
(1021 mb)
NW 6.9 mph
(NW 11 kph)
- 10SM
09:55
Clear
19°F / -7°C 3°F / -16°C 49% 30.15 in
(1021 mb)
WNW 6.9 mph
(WNW 11 kph)
- 10SM
09:35
Clear
19°F / -7°C 5°F / -15°C 53% 30.12 in
(1020 mb)
NW 6.9 mph
(NW 11 kph)
- 10SM
09:15
Clear
18°F / -8°C 3°F / -16°C 53% 30.12 in
(1020 mb)
NW 4.6 mph
(NW 7 kph)
- 10SM
08:55
Clear
16°F / -9°C 3°F / -16°C 57% 30.12 in
(1020 mb)
NW 4.6 mph
(NW 7 kph)
- 10SM
08:35
Clear
16°F / -9°C 3°F / -16°C 57% 30.12 in
(1020 mb)
NNW 4.6 mph
(NNW 7 kph)
- 10SM
08:15
Clear
10°F / -12°C 3°F / -16°C 72% 30.12 in
(1020 mb)
W 3.5 mph
(W 6 kph)
- 10SM
07:55
Clear
12°F / -11°C 3°F / -16°C 67% 30.09 in
(1019 mb)
Calm - 10SM
07:35
Clear
9°F / -13°C 1°F / -17°C 72% 30.09 in
(1019 mb)
Calm - 10SM
07:15
Clear
10°F / -12°C 1°F / -17°C 67% 30.09 in
(1019 mb)
Calm - 10SM
06:55
Clear
9°F / -13°C °F / -18°C 66% 30.06 in
(1018 mb)
Calm - 10SM
06:35
Clear
12°F / -11°C 1°F / -17°C 62% 30.06 in
(1018 mb)
Calm - 10SM
06:15
Clear
10°F / -12°C 3°F / -16°C 72% 30.06 in
(1018 mb)
Calm - 10SM
05:55
Clear
10°F / -12°C 1°F / -17°C 67% 30.06 in
(1018 mb)
Calm - 10SM
05:35
Clear
10°F / -12°C °F / -18°C 61% 30.04 in
(1017 mb)
Calm - 10SM
05:15
Clear
12°F / -11°C 1°F / -17°C 62% 30.04 in
(1017 mb)
N 3.5 mph
(N 6 kph)
- 10SM
04:55
Clear
14°F / -10°C °F / -18°C 52% 30.04 in
(1017 mb)
NE 3.5 mph
(NE 6 kph)
- 10SM
04:35
Clear
14°F / -10°C 1°F / -17°C 57% 30.01 in
(1016 mb)
N 5.8 mph
(N 9 kph)
- 10SM
04:15
Clear
14°F / -10°C 1°F / -17°C 57% 30.01 in
(1016 mb)
NNW 6.9 mph
(NNW 11 kph)
- 10SM
03:55
Clear
14°F / -10°C 1°F / -17°C 57% 30.01 in
(1016 mb)
Calm - 10SM
03:35
Clear
14°F / -10°C °F / -18°C 52% 30.01 in
(1016 mb)
Calm - 10SM
03:15
Clear
14°F / -10°C 1°F / -17°C 57% 30.01 in
(1016 mb)
N 4.6 mph
(N 7 kph)
- 10SM
02:55
Clear
16°F / -9°C °F / -18°C 48% 29.98 in
(1015 mb)
N 4.6 mph
(N 7 kph)
- 10SM
02:35
Clear
16°F / -9°C 1°F / -17°C 53% 29.98 in
(1015 mb)
N 4.6 mph
(N 7 kph)
- 10SM
02:15
Clear
16°F / -9°C °F / -18°C 48% 29.98 in
(1015 mb)
NW 4.6 mph
(NW 7 kph)
- 10SM
01:55
Clear
16°F / -9°C °F / -18°C 48% 29.98 in
(1015 mb)
NNW 6.9 mph
(NNW 11 kph)
- 10SM
01:35
Clear
16°F / -9°C 1°F / -17°C 53% 29.98 in
(1015 mb)
NW 6.9 mph
(NW 11 kph)
- 10SM
01:15
Clear
16°F / -9°C °F / -18°C 48% 29.98 in
(1015 mb)
NW 4.6 mph
(NW 7 kph)
- 10SM
00:55
Clear
16°F / -9°C 1°F / -17°C 53% 29.95 in
(1014 mb)
NNW 8.1 mph
(NNW 13 kph)
- 10SM
00:35
Clear
18°F / -8°C 1°F / -17°C 49% 29.95 in
(1014 mb)
NNW 10.4 mph
(NNW 17 kph)
- 10SM
00:15
Clear
18°F / -8°C 1°F / -17°C 49% 29.92 in
(1013 mb)
N 13.8 mph
(N 22 kph)
- 10SM
Time Weather Temperature Dewpoint Humidity Pressure Winds Precip Visibility


Weather for websites

WeatherForYou.com, LLC is not responsible for any damages or problems caused by this service. Current weather conditions are obtained from the closest station including government and personal stations which may have varying degrees of accuracy. Weather forecasts are derived from the NOAA NDFD. Like all things, this site belongs to Jesus Christ... He just trusts me to maintain it. If you have any questions or comments email webmaster@weatherforyou.com

Copyright © 2015, WeatherForYou.com LLC. All rights reserved.